Location: *
(30.0216°S, 148.7744°W)
Time: 20:05:20
(UTC+00:00)

Haruka - Visible Passes

Search period start: 15 May 2026 00:00
Search period end: 25 May 2026 00:00
Orbit: 530 x 21118 km, 31.3° (Epoch: 15 May)

Date Brightness Start Highest point End Pass type
(mag) Time Alt. Az. Time Alt. Az. Time Alt. Az.
15 May 4.3 04:33:39 10° NW 04:37:41 42° NE 04:41:44 27° E visible
15 May 8.2 11:38:46 75° NNW 11:38:46 75° NNW 15:47:06 10° NNE visible
16 May 4.3 05:32:18 10° WNW 05:37:19 73° NNE 05:38:49 62° ENE visible
16 May 8.2 12:36:19 61° WNW 12:51:22 64° NW 16:52:45 10° NNE visible
17 May 4.9 06:31:20 10° W 07:19:28 12° E 07:25:54 10° E visible
17 May 8.4 13:33:51 43° WNW 14:07:00 51° NW 17:53:27 10° N visible
18 May 6.1 07:30:36 10° W 08:16:59 27° E 09:47:30 10° ENE visible
18 May 8.6 14:31:23 27° W 15:18:36 37° WNW 18:45:11 10° NNW visible
19 May 7.0 09:14:29 42° ENE 09:14:29 42° ENE 12:17:20 10° NE visible
19 May 8.8 15:28:53 12° W 16:25:34 23° WNW 18:54:09 10° NW visible
20 May 8.5 10:11:58 59° ENE 10:11:58 59° ENE 13:50:08 10° NE visible
21 May 4.1 03:59:42 10° NW 04:03:22 39° NE 04:09:52 16° E visible
21 May 8.4 11:09:26 69° NNE 11:09:26 69° NNE 15:05:52 10° NNE visible
22 May 4.0 04:58:20 10° WNW 05:02:54 73° NNE 05:06:55 40° E visible
22 May 8.4 12:06:52 63° NW 12:10:04 64° NW 16:13:51 10° NNE visible
23 May 4.7 05:57:21 10° W 06:03:16 89° SSW 06:03:57 81° ESE visible
23 May 8.5 13:04:16 48° WNW 13:25:27 51° NW 17:16:20 10° N visible
24 May 5.4 06:56:32 10° W 07:47:18 20° E 08:29:58 10° E visible
24 May 8.7 14:01:39 32° WNW 14:38:29 38° WNW 18:10:38 10° N visible
